New Bedford, MA

2:17 AM EDT on April 21, 2018 (GMT -0400)
New Bedford Regional

Weather History for KEWB - February, 2013

Change the Weather History Date:

Thursday, February 14, 2013

  Actual Average Record
Temperature  
Mean Temperature 34 °F -  
Max Temperature 43 °F 39 °F 58 °F (1990)
Min Temperature 24 °F 22 °F -9 °F (2016)
Degree Days  
Heating Degree Days 30    
Moisture  
Dew Point 26 °F    
Average Humidity 79    
Maximum Humidity 100    
Minimum Humidity 38    
Precipitation  
Precipitation 0.14 in - - ()
Sea Level Pressure  
Sea Level Pressure 29.82 in    
Wind  
Wind Speed 3 mph (NW)    
Max Wind Speed 13 mph    
Max Gust Speed -    
Visibility 6 miles    
Events Fog , Snow    
Averages and records for this station are not official NWS values.
T = Trace of Precipitation, MM = Missing Value Source: NWS Daily Summary

Daily Weather History Graph

Daily Weather History Graph

Search for Another Location

Airport or City:

Astronomy

Feb. 14, 2013 Rise Set
Actual Time 6:40 AM EST 5:16 PM EST
Civil Twilight 6:11 AM EST 5:44 PM EST
Nautical Twilight 5:39 AM EST 6:17 PM EST
Astronomical Twilight 5:07 AM EST 6:49 PM EST
Moon 8:35 AM EST (2/14) 10:21 PM EST (2/14)
Length of Visible Light 11h 33m
Length of Day
10h 36m
Waxing Crescent, 21% of the Moon is Illuminated
Feb 14
Waxing Crescent
Feb 17
First Quarter
Feb 25
Full
Mar 4
Last Quarter
Mar 11
New

Hourly Weather History & Observations

Time (EST) Temp. Windchill Dew Point Humidity Pressure Visibility Wind Dir Wind Speed Gust Speed Precip Events Conditions
12:53 AM 32.0 °F - 27.0 °F 82% 29.70 in 10.0 mi Calm Calm - N/A   Overcast
1:21 AM 32.0 °F 28.7 °F 26.6 °F 80% 29.70 in 2.5 mi NNW 3.5 mph - 0.00 in Snow Light Snow
1:27 AM 32.0 °F 28.7 °F 26.6 °F 80% 29.70 in 0.8 mi Variable 3.5 mph - 0.00 in Snow Light Snow
1:38 AM 30.2 °F 26.7 °F 28.4 °F 93% 29.71 in 0.2 mi NNW 3.5 mph - 0.02 in Fog , Snow Heavy Snow
1:44 AM 30.2 °F 26.7 °F 28.4 °F 93% 29.71 in 0.2 mi North 3.5 mph - 0.03 in Fog , Snow Heavy Snow
1:53 AM 30.9 °F - 30.0 °F 96% 29.72 in 0.2 mi Calm Calm - 0.05 in Fog , Snow Heavy Snow
2:10 AM 30.2 °F - 30.2 °F 100% 29.71 in 0.5 mi Calm Calm - 0.03 in Fog , Snow Snow
2:53 AM 30.9 °F 27.5 °F 28.9 °F 92% 29.70 in 0.5 mi North 3.5 mph - 0.07 in Fog , Snow Snow
3:09 AM 30.2 °F 26.7 °F 30.2 °F 100% 29.70 in 0.8 mi North 3.5 mph - 0.01 in Snow Light Snow
3:19 AM 30.2 °F 25.4 °F 28.4 °F 93% 29.69 in 1.0 mi NNW 4.6 mph - 0.02 in Snow Light Snow
3:35 AM 30.2 °F 26.7 °F 28.4 °F 93% 29.69 in 1.8 mi North 3.5 mph - 0.02 in Snow Light Snow
3:42 AM 30.2 °F - 28.4 °F 93% 29.69 in 2.5 mi Calm Calm - 0.02 in Snow Light Snow
3:49 AM 30.2 °F 25.4 °F 28.4 °F 93% 29.69 in 4.0 mi NNW 4.6 mph - 0.02 in Snow Light Snow
3:53 AM 30.9 °F - 28.9 °F 92% 29.70 in 4.0 mi Calm Calm - 0.02 in   Mostly Cloudy
4:12 AM 30.2 °F 25.4 °F 28.4 °F 93% 29.70 in 5.0 mi Variable 4.6 mph - N/A   Overcast
4:50 AM 30.2 °F 26.7 °F 28.4 °F 93% 29.72 in 5.0 mi NW 3.5 mph - N/A   Scattered Clouds
4:53 AM 30.9 °F 26.2 °F 28.9 °F 92% 29.72 in 5.0 mi NW 4.6 mph - N/A   Scattered Clouds
5:53 AM 30.0 °F - 27.0 °F 88% 29.74 in 9.0 mi Calm Calm - N/A   Clear
6:53 AM 28.9 °F 23.9 °F 25.0 °F 85% 29.77 in 10.0 mi NW 4.6 mph - N/A   Clear
7:53 AM 30.9 °F 27.5 °F 26.1 °F 82% 29.81 in 10.0 mi Variable 3.5 mph - N/A   Scattered Clouds
8:53 AM 34.0 °F 28.0 °F 27.0 °F 75% 29.84 in 10.0 mi NNW 6.9 mph - N/A   Scattered Clouds
9:53 AM 37.0 °F 32.4 °F 27.0 °F 67% 29.87 in 10.0 mi NNW 5.8 mph - N/A   Clear
10:53 AM 39.9 °F 35.8 °F 25.0 °F 55% 29.89 in 10.0 mi North 5.8 mph - N/A   Clear
11:53 AM 41.0 °F 38.0 °F 21.0 °F 45% 29.90 in 10.0 mi North 4.6 mph - N/A   Partly Cloudy
12:53 PM 42.1 °F 38.4 °F 19.9 °F 41% 29.90 in 10.0 mi NNW 5.8 mph - N/A   Clear
1:53 PM 42.1 °F 37.7 °F 19.9 °F 41% 29.90 in 10.0 mi WSW 6.9 mph - N/A   Partly Cloudy
2:53 PM 43.0 °F 39.5 °F 19.0 °F 38% 29.91 in 10.0 mi SW 5.8 mph - N/A   Clear
3:53 PM 39.9 °F 32.5 °F 21.9 °F 49% 29.93 in 10.0 mi SSE 12.7 mph - N/A   Clear
4:53 PM 37.9 °F 32.1 °F 23.0 °F 55% 29.96 in 10.0 mi SW 8.1 mph - N/A   Clear
5:53 PM 35.1 °F 29.3 °F 25.0 °F 67% 29.98 in 10.0 mi SSW 6.9 mph - N/A   Clear
6:53 PM 34.0 °F 31.0 °F 25.0 °F 70% 29.99 in 10.0 mi SW 3.5 mph - N/A   Clear
7:53 PM 30.0 °F 26.5 °F 25.0 °F 82% 30.00 in 10.0 mi SW 3.5 mph - N/A   Clear
8:53 PM 32.0 °F 28.7 °F 26.1 °F 79% 30.01 in 10.0 mi SW 3.5 mph - N/A   Clear
9:53 PM 28.0 °F - 24.1 °F 85% 30.01 in 10.0 mi Calm Calm - N/A   Clear
10:53 PM 26.1 °F - 23.0 °F 88% 30.01 in 8.0 mi Calm Calm - N/A   Clear
11:53 PM 24.1 °F - 23.0 °F 96% 30.01 in 9.0 mi Calm Calm - N/A   Clear